Theta_e
313 303 302 302 295 291 289 293 297 295 296 301 304 305 307 310 311 306 321 330 334 338 345 347 348 349 350 350 349 348 348 348 348 349 348 348 348 348 347 346 346 346 346 345 343 340 338 336 335
302 303 300 296 289 285 288 292 293 299 300 300 303 304 305 306 314 317 322 330 337 340 344 346 345 349 349 349 348 348 348 347 346 348 349 348 347 346 346 346 344 343 342 340 338 335 333 331 330
302 301 297 293 287 285 286 289 296 297 299 298 299 301 303 306 314 320 324 335 340 341 343 344 344 347 347 346 346 345 346 345 345 345 346 346 346 345 344 342 340 338 336 334 332 329 327 325 325
300 298 294 287 285 288 289 289 290 292 294 294 298 298 301 307 316 322 329 336 339 340 342 342 344 346 346 345 344 343 344 344 344 344 344 343 342 341 339 338 335 333 331 328 326 325 324 323 323
295 293 287 284 285 288 289 291 290 292 294 294 297 296 299 307 316 324 333 336 336 338 340 341 341 342 343 344 343 342 342 342 342 343 343 341 339 338 336 333 330 328 326 324 323 322 322 321 321
292 290 282 282 285 288 290 292 291 291 292 295 295 297 299 311 319 327 334 335 335 336 337 339 335 338 340 341 341 341 341 339 339 339 338 337 335 334 332 329 327 325 323 321 321 321 320 320 318
289 286 284 282 284 286 290 292 292 294 291 293 297 295 299 305 318 328 331 333 334 336 335 337 337 335 333 335 336 337 338 336 337 336 334 333 331 330 328 325 324 322 321 320 320 319 318 318 316
290 288 283 283 285 286 291 291 293 293 293 296 300 295 296 302 320 325 328 330 332 334 334 334 334 334 334 332 329 331 333 333 333 331 329 328 327 326 324 323 321 320 319 319 317 315 315 315 314
291 283 282 284 285 288 291 290 293 293 294 294 296 297 301 313 321 321 322 324 327 329 330 331 330 330 329 329 325 326 328 328 327 324 320 316 316 315 313 317 319 318 318 317 314 312 310 308 308
287 283 285 288 290 289 292 291 293 291 291 292 295 300 310 316 318 317 318 320 321 324 326 328 327 326 326 325 325 323 321 321 319 316 313 311 309 309 311 313 315 316 315 314 311 308 304 301 301
287 285 290 288 290 291 290 291 293 290 288 292 293 296 309 312 315 317 318 320 321 324 325 325 325 324 322 320 319 317 314 315 314 311 308 305 305 308 307 307 305 305 302 301 300 299 299 300 300
284 288 289 292 291 290 289 291 291 290 294 295 294 300 308 310 313 316 317 319 321 319 321 323 322 320 320 318 318 314 311 311 310 307 303 301 303 302 301 301 300 300 299 299 299 299 299 299 299
287 290 289 290 291 291 290 289 290 290 293 293 294 299 306 310 312 316 318 319 320 319 318 318 319 319 317 316 313 311 310 309 308 304 302 300 301 300 300 299 299 298 298 298 298 298 298 298 298
291 290 291 293 291 289 288 289 288 292 293 292 293 296 300 307 311 314 315 317 318 319 319 315 316 317 315 315 312 310 307 306 305 303 301 300 300 299 299 298 298 297 297 297 297 297 297 297 297
292 287 290 291 290 288 289 286 287 292 292 292 292 292 296 303 309 311 314 316 317 318 317 313 313 314 314 313 311 308 306 303 302 301 301 300 299 299 298 298 297 297 297 296 296 296 296 296 296
286 286 281 288 291 291 289 283 291 294 290 291 293 293 292 297 306 311 313 315 317 317 315 314 314 311 312 312 311 307 303 301 301 300 300 299 299 298 297 297 296 296 296 296 295 295 295 295 295
282 277 279 282 289 289 288 285 290 293 291 291 293 293 293 293 298 307 312 314 315 316 314 313 313 310 310 308 308 306 303 301 300 299 299 299 299 298 297 296 296 295 295 295 295 294 295 294 294
274 277 279 279 284 287 285 285 289 291 291 291 293 295 296 296 295 300 308 312 314 314 314 313 312 311 309 306 304 303 300 300 299 298 298 298 299 297 296 295 295 294 294 294 294 293 293 293 293
281 279 278 282 286 284 284 285 288 290 291 290 292 293 294 295 297 297 301 308 311 312 312 312 311 310 308 304 302 301 302 299 297 298 298 298 298 296 295 294 294 294 293 293 293 292 292 292 292
279 276 279 283 285 284 283 283 287 288 290 291 292 293 293 292 291 292 293 300 306 308 311 311 311 310 308 308 307 307 305 298 299 296 297 297 296 296 294 294 293 293 292 291 291 292 291 291 292
273 273 275 279 283 284 282 280 283 286 287 289 291 293 293 292 293 292 292 292 300 305 309 309 310 310 309 308 305 294 294 293 294 294 294 295 295 295 295 294 293 292 292 291 291 291 291 290 290
271 276 276 277 276 275 282 273 280 284 286 288 290 290 291 291 291 293 293 292 294 300 306 309 309 309 308 307 302 300 300 298 296 298 296 294 295 294 294 293 293 292 292 291 290 290 291 290 289
273 278 276 278 277 277 278 275 278 282 282 285 288 290 292 294 293 295 295 294 294 297 301 306 308 308 305 305 303 302 303 302 298 296 294 294 293 294 293 293 292 291 291 291 290 289 289 290 289
279 276 275 273 274 268 275 276 276 277 282 284 287 289 291 293 294 294 296 295 295 295 298 303 306 306 304 303 303 302 302 298 293 293 292 292 292 292 292 291 291 291 290 290 290 289 289 289 289
277 272 260 262 266 266 276 275 277 279 283 285 287 289 291 292 293 294 294 293 293 292 294 299 303 303 303 301 301 301 301 295 295 293 293 291 291 290 290 290 289 289 289 289 289 288 288 288 288
274 272 262 259 265 268 275 270 276 284 286 285 287 288 289 287 289 291 292 293 292 292 292 296 300 302 301 300 300 300 300 296 296 294 294 293 292 292 290 290 289 288 288 288 287 288 287 287 288
275 271 275 270 262 270 271 276 280 281 282 285 286 284 285 286 286 287 287 288 290 290 291 295 297 300 299 299 299 299 298 296 295 294 293 293 292 290 287 287 287 287 286 286 286 286 285 285 285
277 279 270 271 264 265 268 270 271 271 275 278 275 279 280 281 282 282 283 284 285 286 289 291 295 296 296 296 298 297 296 296 293 290 291 289 288 287 287 286 286 285 285 285 284 284 283 283 283
275 274 272 275 272 262 263 271 271 270 268 268 273 278 278 278 278 279 279 280 279 280 281 283 285 287 289 292 293 292 291 291 288 289 288 287 287 286 286 286 284 283 283 283 283 283 282 283 283
280 277 277 266 264 268 267 271 274 273 273 278 279 278 278 279 277 278 279 278 280 281 280 278 279 283 286 286 287 288 287 287 287 287 287 286 286 286 285 285 284 282 281 281 282 281 282 282 282
Wind_Speed
5 4 3 4 3 2 5 8 2 4 3 5 4 5 10 6 6 5 5 5 7 16 14 16 18 18 18 18 18 17 15 15 12 15 17 15 16 16 17 16 14 16 15 15 14 13 11 10 9
4 4 4 2 4 3 9 5 12 12 5 1 0 1 3 7 2 2 6 5 12 14 12 15 17 18 18 16 16 17 16 16 12 12 15 16 15 17 17 17 17 16 15 15 13 12 11 10 10
5 4 4 4 4 13 8 7 17 6 8 2 3 2 3 5 2 6 4 13 13 16 11 11 15 19 18 16 15 13 13 15 13 11 14 15 17 19 18 17 16 16 14 13 13 12 11 11 11
3 3 2 3 11 12 11 5 5 3 5 6 5 7 4 2 3 6 8 16 14 12 12 15 18 19 17 15 15 14 15 14 14 14 13 14 14 16 16 16 15 15 14 13 13 12 12 11 12
4 2 3 4 11 7 5 3 6 4 2 5 6 4 5 3 2 5 14 12 13 12 13 13 15 16 15 15 16 17 16 15 14 15 16 16 16 16 16 16 15 15 14 12 12 11 12 12 12
2 2 2 14 16 7 6 7 4 5 4 4 4 2 5 1 5 9 13 13 10 12 11 11 12 16 15 15 15 16 16 16 16 16 17 17 17 18 17 16 15 14 13 12 11 12 12 12 12
5 4 11 5 11 12 12 8 12 16 5 10 4 5 3 3 7 10 8 10 10 11 10 9 10 12 12 16 12 13 15 17 16 16 17 16 16 16 17 15 15 14 13 13 12 12 12 12 12
4 3 5 7 10 18 7 9 6 12 16 1 10 7 7 4 11 10 7 8 9 10 11 10 9 10 9 11 14 9 12 13 13 13 13 12 12 13 13 12 14 14 14 14 13 11 11 11 11
3 4 16 18 16 20 3 6 4 2 5 4 8 6 1 6 13 11 7 7 8 9 10 11 10 9 7 9 9 10 11 11 11 11 13 11 7 8 10 9 13 14 14 13 12 11 10 10 11
7 9 20 6 15 9 11 7 5 4 6 5 4 2 4 14 15 18 19 17 15 16 12 13 12 10 9 6 10 6 6 7 8 9 10 6 6 6 7 8 10 12 13 13 12 11 10 7 4
6 23 15 3 8 6 5 5 4 6 5 8 11 5 9 13 16 16 17 20 18 12 11 12 12 12 10 7 6 4 4 5 6 9 8 7 6 5 4 4 4 5 8 5 6 5 4 5 4
10 14 15 15 5 5 7 3 7 8 9 1 6 5 9 15 17 20 20 17 18 13 12 12 12 12 10 7 7 7 6 6 5 6 8 7 5 5 4 3 4 4 3 5 4 3 4 5 4
16 17 5 5 12 15 4 12 7 12 11 4 5 6 10 12 16 15 15 15 14 14 12 11 12 12 10 10 7 8 7 7 8 7 7 6 6 6 5 4 4 3 3 4 4 4 4 4 4
6 6 19 18 16 8 10 15 7 20 9 6 6 9 9 12 16 11 15 18 20 16 15 10 12 11 11 10 10 8 7 7 7 7 8 9 7 7 6 5 4 4 3 3 3 3 4 3 3
16 16 15 17 7 6 9 24 29 15 6 13 12 9 9 13 10 18 19 19 15 16 13 14 13 12 14 13 11 8 7 8 8 7 9 9 8 8 8 6 5 5 4 6 4 4 3 3 2
6 5 13 12 19 11 9 28 15 17 12 16 17 16 12 14 14 17 16 16 15 16 17 14 12 12 13 11 11 8 7 7 7 7 7 9 9 9 8 6 5 6 5 4 3 3 3 2 1
14 21 22 15 9 7 23 28 13 8 14 18 18 18 16 15 13 14 14 17 16 18 16 17 15 15 13 10 9 10 10 8 8 8 7 9 9 10 8 7 6 7 5 4 4 3 2 2 0
21 22 20 22 7 15 19 22 15 7 12 18 19 20 20 19 20 15 16 17 16 16 16 17 14 15 14 9 6 5 6 7 7 8 9 12 8 10 8 7 7 7 6 5 3 3 2 2 1
20 18 24 16 14 10 18 22 18 12 11 12 11 13 14 15 12 8 10 12 11 13 16 18 19 17 13 10 8 6 10 8 8 8 11 12 11 11 9 7 8 7 7 6 5 3 3 2 1
22 17 22 19 8 17 19 26 17 12 16 16 17 17 15 9 6 7 7 9 13 15 17 16 18 17 16 13 12 6 9 5 7 6 9 10 11 11 9 9 8 9 6 6 6 4 3 2 1
21 24 19 19 7 22 9 22 16 6 6 8 11 14 11 14 14 11 10 12 12 15 17 18 20 21 18 17 10 5 6 4 5 7 8 8 11 11 10 10 8 9 7 6 7 6 5 3 1
19 19 22 20 18 22 15 18 13 18 20 14 16 11 12 9 8 10 10 8 12 15 14 16 16 16 16 18 15 18 12 11 9 10 9 9 12 12 11 10 9 9 6 8 7 5 4 4 4
16 16 17 16 14 13 11 11 8 12 14 18 22 20 19 19 16 19 14 12 13 12 14 15 16 16 17 19 18 16 15 10 6 7 12 11 10 12 12 11 10 9 7 7 8 8 6 4 3
11 10 2 1 5 18 16 17 12 9 15 13 15 19 20 19 16 13 14 12 12 12 13 14 17 19 19 19 20 21 20 13 11 11 11 9 8 8 10 11 10 10 9 10 8 7 8 6 4
13 5 2 6 12 18 18 12 9 3 13 20 22 22 21 15 13 14 14 10 8 10 13 12 16 18 19 20 20 20 20 16 18 16 13 14 10 7 11 12 11 9 9 9 8 8 8 8 7
14 13 8 9 7 11 18 15 21 19 15 11 18 17 10 2 3 5 6 5 6 8 10 13 16 16 19 20 21 18 18 12 12 14 12 12 12 11 13 12 11 10 10 8 8 5 5 7 5
4 13 11 2 2 1 3 5 7 4 10 20 21 4 3 5 5 5 5 6 6 6 8 13 14 15 16 19 16 18 16 16 15 15 12 11 11 9 13 12 11 10 9 9 8 5 6 6 5
5 5 5 4 5 6 0 4 2 9 10 11 9 8 7 6 6 7 7 7 5 7 7 8 9 14 13 14 14 13 16 16 12 12 13 12 10 12 13 12 11 10 9 9 8 5 5 6 5
5 6 5 4 3 4 3 2 3 6 5 7 6 6 6 7 7 7 7 8 7 6 5 3 3 5 6 9 9 10 7 7 11 12 11 12 12 13 13 13 12 11 10 8 8 7 8 8 8
6 5 6 7 5 1 4 0 3 5 5 8 9 9 7 6 6 9 9 8 8 7 6 4 3 5 4 5 6 8 10 12 9 11 12 12 12 11 13 13 12 11 10 9 9 9 8 8 8
Wind_Direction
103 91 86 40 119 71 246 241 233 204 220 205 150 161 203 198 175 208 350 163 151 150 165 159 159 163 154 149 148 145 142 130 135 142 143 138 135 131 127 125 122 116 109 101 98 98 100 99 94
117 105 52 96 134 179 242 200 224 207 197 51 137 191 219 233 219 276 132 201 155 148 162 157 156 156 149 143 142 142 137 125 144 136 135 139 135 131 125 119 109 106 101 101 106 104 98 92 85
113 57 123 166 178 218 235 205 233 226 240 217 258 214 226 222 204 186 211 155 156 147 155 153 140 141 139 137 133 124 120 135 147 133 120 123 124 118 114 106 102 103 110 111 107 102 93 85 79
136 50 31 167 223 241 216 218 213 231 213 174 191 266 272 255 179 180 159 153 150 143 147 150 147 149 144 131 129 133 140 138 141 133 133 119 109 102 104 110 118 121 116 112 107 102 95 86 78
45 55 199 221 237 243 235 241 175 215 213 176 165 236 250 237 201 160 158 152 151 143 150 154 143 134 147 145 142 148 144 141 141 136 134 129 126 126 128 134 129 121 117 112 107 103 93 85 76
156 112 184 223 229 234 232 194 193 229 230 182 183 175 244 327 169 172 158 156 142 141 146 148 143 143 156 144 147 151 147 149 149 143 141 143 143 141 138 136 129 123 116 110 105 96 90 84 76
185 152 228 225 238 244 236 162 195 224 175 228 149 167 226 238 196 174 153 141 140 145 135 145 150 150 150 138 150 157 154 160 155 153 149 149 146 144 139 135 131 124 119 114 107 98 92 89 84
157 169 212 208 212 249 216 184 182 195 239 136 165 219 248 197 173 160 142 141 146 154 146 151 147 153 158 148 150 162 153 150 154 147 138 135 132 132 126 125 130 125 122 114 110 103 98 93 83
127 205 233 223 206 223 135 190 207 193 194 221 193 187 287 137 143 147 152 156 166 163 159 149 152 147 140 156 147 145 141 137 123 109 99 95 107 112 113 129 128 124 118 115 106 101 94 86 76
174 222 238 208 219 217 230 187 201 171 197 230 231 148 95 155 165 172 177 181 185 182 166 161 154 151 142 148 139 127 116 124 124 125 121 116 120 123 121 112 120 116 113 106 97 86 74 67 65
214 234 232 245 226 221 246 220 216 175 207 217 207 157 148 175 187 189 192 193 186 181 172 165 159 155 148 140 133 125 123 131 131 136 133 133 134 121 112 105 103 107 96 96 87 70 63 64 57
255 244 239 250 264 252 244 264 245 197 222 171 207 144 160 183 196 201 200 196 193 179 181 171 161 154 154 147 151 146 144 147 147 148 144 147 142 140 137 134 124 107 103 107 99 94 86 75 69
241 249 225 228 241 250 265 245 239 236 233 194 124 157 183 190 206 213 213 204 198 197 182 179 164 164 157 157 149 151 153 160 158 158 163 158 151 154 148 139 131 118 114 108 109 114 105 85 65
248 255 251 252 259 249 237 256 199 244 223 235 201 215 203 194 209 202 213 213 207 200 195 184 179 167 162 162 161 160 156 157 165 168 172 170 162 160 158 147 142 133 126 122 127 111 93 75 50
251 263 265 249 221 246 212 257 241 248 203 232 236 235 224 219 182 206 210 214 215 210 189 190 194 170 175 167 161 163 164 159 171 177 174 173 167 169 161 159 156 151 149 140 126 104 104 109 98
268 244 244 236 225 220 181 260 255 226 189 227 240 252 239 226 203 211 209 207 207 205 198 187 188 186 180 176 168 162 165 161 170 174 177 179 173 169 165 161 164 158 152 142 128 125 111 101 66
241 248 240 258 217 208 209 255 242 190 212 226 230 228 234 236 214 215 207 204 198 201 195 195 185 185 183 169 171 165 168 176 175 171 178 185 180 175 170 169 165 160 149 154 154 130 138 149 211
234 228 243 242 209 210 227 246 231 218 205 219 225 230 234 233 230 216 205 204 200 193 191 191 189 183 177 165 148 157 167 179 180 181 182 180 182 178 171 167 160 159 156 158 161 147 137 132 118
270 249 256 248 227 246 237 244 238 226 242 236 234 234 237 236 236 213 211 211 201 190 185 187 187 187 171 167 169 182 199 188 189 192 183 181 178 174 171 166 162 164 170 172 166 139 158 139 106
250 277 255 254 231 218 236 248 249 214 235 232 232 239 238 241 237 214 212 186 189 191 197 192 194 184 186 184 189 184 185 190 191 181 189 187 175 168 172 169 168 169 160 165 171 168 139 110 105
243 244 255 273 245 232 227 248 236 232 234 237 226 234 232 227 238 229 223 207 195 199 199 197 196 191 189 186 166 104 104 98 162 190 187 181 172 177 173 169 166 165 162 173 178 177 169 156 131
260 245 243 256 275 242 179 256 227 224 229 234 246 233 243 226 236 235 222 211 200 209 202 203 198 192 190 182 179 183 190 184 197 189 181 179 179 174 170 168 167 169 169 174 175 176 169 147 163
244 252 249 244 247 286 199 237 231 205 221 226 241 245 244 243 228 237 229 216 212 203 200 198 193 190 185 188 189 189 199 194 164 162 169 176 177 176 171 170 168 169 171 172 171 168 170 167 152
251 252 259 314 253 259 256 224 217 175 204 218 233 238 235 233 236 233 230 222 216 198 195 192 190 193 187 187 191 196 198 176 160 166 172 175 174 174 178 170 168 171 171 173 174 169 170 171 169
216 149 263 215 224 243 239 241 250 232 210 220 231 234 240 232 225 225 224 215 207 190 196 194 191 195 190 190 193 195 195 183 180 174 175 168 172 183 182 170 171 172 171 168 164 168 170 174 178
201 178 166 208 204 235 226 237 246 233 228 226 230 235 250 335 278 280 278 253 231 212 198 197 199 197 188 189 195 195 194 186 185 180 175 180 182 179 168 172 170 164 161 160 163 167 169 173 177
179 192 204 8 311 216 187 286 320 163 223 233 238 217 32 29 34 333 327 326 315 278 218 202 200 202 196 197 189 191 190 186 185 179 172 172 168 161 161 163 161 158 157 159 159 164 166 163 165
175 160 164 177 204 195 7 292 253 352 320 9 22 21 351 340 341 338 340 331 319 308 271 218 207 200 194 191 194 198 186 181 167 158 163 162 152 150 155 156 156 155 156 157 159 159 160 162 173
168 190 197 142 209 138 107 294 294 288 306 317 332 7 344 344 340 337 332 334 324 318 318 258 184 153 163 180 177 165 172 173 152 154 153 154 148 152 157 157 153 156 157 158 158 164 164 172 176
241 258 199 146 229 87 132 186 0 310 314 330 2 10 356 354 346 340 341 336 340 345 351 6 51 118 138 135 130 147 143 143 153 157 151 149 150 150 152 153 153 156 158 162 165 167 172 177 180